Tracking 17636 objects as of 30-April-2016
HD Live streaming from Space Station
objects crossing your sky now

TITAN 3 R/B(2)

Track TITAN 3 R/B(2) now!


NORAD ID: 20669
Int'l Code: 1990-056C
Perigee: 295.9 km
Apogee: 33,146.9 km
Inclination: 24.1 °
Period: 582.1 minutes
Semi major axis: 23092 km
RCS: 6.947 m2 (large)
Launch date: June 23, 1990
Source: United States (US)
Launch site: AIR FORCE EASTERN TEST RANGE (AFETR)

Note: This is a ROCKET BODY
Your satellite tracking list
Your tracking list is empty





NASA's NSSDC Master Catalog

Two Line Element Set (TLE):
1 20669U 90056C   16121.45253562  .00001078  00000-0  67090-3 0  9997
2 20669  24.0791 260.1785 7112935  85.3279 345.6057  2.47402455217181
Source of the keplerian elements: AFSPC

N2YO: 278